User: anonymous   Login
Location: *
(37.5724°S, 58.0067°E)
Time: 21:14:25
(UTC+00:00)
Language:

Cosmos 1680 Rocket - Orbit

View from above orbital plane
View from above orbital plane
View from above satellite
View from above satellite

Ground track
Ground track

The orbit data is extracted from the following two-line orbital elements,

1 16012U 85079B   20331.78875903  .00000105  00000-0  44919-4 0  9992
2 16012  74.0595 346.5696 0016218 294.0640  65.8816 14.36344578844492
Epoch (UTC): 26 November 2020 18:55:48
Eccentricity: 0.0016218
inclination: 74.0595°
perigee height: 759 km
apogee height: 782 km
right ascension of ascending node: 346.5696°
argument of perigee: 294.0640°
revolutions per day: 14.36344578
mean anomaly at epoch: 65.8816°
orbit number at epoch: 84449

The dashed part of the orbit path shows where the satellite is in the earth's shadow,  

DLR